Погода в Греймуте

Новая Зеландия     42°27′44″S   171°11′48″E
темп.,
°C
ветер,
м/с
пор.,
м/с
влажн.,
%
обл.,
%
осадки,
мм/ч
давл.,
гПа
погр.,
м
8 августа, пн
пн800:00+5вюв61281100 1.9 1009707
03:00+6вюв71567100 0.4 1008903
06:00+5вюв91970100 2.9 10111372
09:00+5вюв7166399 0.1 10141152
12:00+8вюв71554100 0.1 10141293
15:00+8вюв71252100 0.0 10141102
18:00+5вюв51264100 0.0 1015735
21:00+4вюв41171100 0.0 1017542
9 августа, вт
вт900:00+4в51174100 0.0 1017435
03:00+3в51279100 0.0 1017412
06:00+3вюв5127699 0.0 1016377
09:00+4вюв51175100 0.0 1017433
12:00+9в585488 0.0 1016719
15:00+11вюв465341 0.0 1014893
18:00+5вюв387415 0.0 1015262
21:00+3вюв498060 0.0 1016244
10 августа, ср
ср1000:00+1вюв498177 0.0 1016234
03:000вюв49835 0.0 1016195
06:000вюв35844 0.0 1016114
09:00+2вюв24691 0.0 1016135
12:00+10в11481 0.0 1016489
15:00+10з21582 0.0 1015726
18:00+5ююз11790 0.0 101659
21:00+5вюв36826 0.0 1017180
11 августа, чт
чт1100:00+3вюв37844 0.0 1019148
03:00+2вюв38875 0.0 1021165
06:00+1вюв48864 0.0 1023167
09:00+3вюв38751 0.0 1025186
12:00+10в35500 0.0 1025800
15:00+11вюв23444 0.0 10251435
18:00+6вюв36730 0.0 1027139
21:00+2вюв36825 0.0 1028125
12 августа, пт
пт1200:00+1вюв378315 0.0 1029147
03:00+1в348162 0.0 1029114
06:000в238279 0.0 102992
09:00+3вюв236964 0.0 1030126
12:00+10всв10585 0.0 1028580
15:00+10з23665 0.0 1027786
18:00+5юз118855 0.0 102783
21:00+4вюв219196 0.0 102760